Location: Poughquag
(41.6090°N, 73.6820°W)
Time: 11:55:36
(UTC-05:00)

deb Explorer IX - Pass Details

Date: 14 December 2023
Orbit: 516 x 916 km, 38.7° (Epoch: 29 February)

Event Time Altitude Azimuth Distance (km) Brightness Sun altitude
Rises 19:23:13 0° 265° (W) 2,667 ? -32.4°
Reaches altitude 10° 19:25:30 10° 261° (W) 1,752 ? -32.8°
Enters shadow 19:26:32 17° 258° (WSW) 1,355 ? -33.0°
